Theta_e
306 306 306 304 304 303 301 300 299 298 297 296 295 295 295 296 296 298 299 300 302 303 303 302 301 300 300 299 298 297 296 295 294 292 291 290 288 287 287 284 284 284
305 303 303 304 303 302 302 302 300 299 297 297 296 296 295 295 295 296 297 299 300 301 301 301 300 299 298 298 297 296 295 294 292 292 290 288 287 286 285 284 283 282
304 302 300 301 302 301 301 301 301 300 298 297 296 295 293 294 294 296 297 298 299 299 299 299 299 298 297 296 296 294 293 292 291 289 289 288 285 285 283 283 282 282
302 304 301 300 301 300 301 300 299 299 298 296 295 294 293 293 294 295 296 295 298 297 297 296 297 296 296 295 294 293 293 292 290 289 288 286 284 284 282 282 281 281
302 303 302 300 300 300 299 299 299 298 297 297 295 293 293 292 293 293 294 294 295 294 294 294 294 294 294 293 293 292 291 291 289 288 288 286 283 283 282 281 281 280
301 302 301 301 300 299 298 298 298 297 297 296 294 293 293 292 292 292 292 293 292 293 293 293 293 292 292 291 291 291 290 289 288 288 287 285 282 282 282 281 281 280
300 300 300 300 300 300 299 298 298 297 296 295 292 291 291 291 291 291 292 292 292 291 292 292 292 291 291 290 290 289 289 288 286 286 286 284 282 281 281 280 280 280
298 299 300 299 299 299 298 298 297 296 295 292 291 291 291 291 291 291 291 291 291 291 292 292 291 291 290 289 289 288 287 286 285 284 284 282 282 281 280 280 280 279
297 298 298 297 297 296 296 297 297 295 293 292 291 290 290 291 291 290 290 291 290 290 291 291 291 290 289 289 289 288 287 285 285 284 283 282 281 281 280 280 279 279
295 296 296 296 296 296 295 295 295 294 292 292 291 290 289 289 290 290 290 290 290 289 290 290 290 290 289 289 289 288 287 286 284 284 283 282 282 281 280 280 280 279
294 294 295 295 295 296 294 294 294 293 291 291 290 289 289 288 288 289 289 289 289 288 289 289 289 289 288 288 288 288 287 286 284 283 283 283 283 282 281 280 280 279
294 294 294 295 295 295 294 293 293 292 290 290 290 289 288 288 287 287 288 288 288 288 288 288 288 288 288 287 287 286 286 285 284 283 283 283 282 282 281 280 280 280
294 294 294 295 295 294 294 292 291 291 290 290 289 289 288 287 287 287 287 287 287 287 287 288 287 287 287 287 286 285 285 284 283 283 283 282 282 282 281 280 280 280
294 294 293 293 294 293 293 291 290 290 290 290 288 288 288 287 286 286 286 286 286 286 286 287 287 286 286 286 285 285 285 284 283 282 282 281 281 280 280 280 279 279
293 293 293 292 291 292 291 290 289 289 290 289 288 288 288 287 287 286 286 285 285 286 285 286 286 286 286 285 284 284 284 283 283 282 281 281 280 280 279 279 279 279
292 292 292 291 290 291 291 290 288 288 288 288 288 288 288 287 286 286 285 285 284 284 284 284 285 286 285 286 286 284 284 283 283 282 281 280 280 279 279 279 279 279
290 291 290 290 291 290 289 289 288 287 287 287 287 287 287 286 285 285 285 285 284 283 283 283 284 285 286 288 288 288 284 283 282 281 281 280 280 279 279 279 279 279
290 290 289 290 290 289 289 289 288 287 287 287 287 286 286 286 285 285 285 284 284 283 283 283 283 285 288 288 289 289 287 283 282 281 281 280 280 280 279 279 279 279
290 290 289 289 289 289 289 288 288 287 287 287 286 287 286 285 285 284 284 284 283 283 283 283 283 286 288 289 289 289 288 284 281 281 281 280 280 280 279 279 279 279
289 289 289 289 288 288 288 287 287 287 287 287 287 286 286 285 284 284 284 284 283 283 283 282 282 285 288 289 289 289 289 285 281 281 281 280 280 280 280 279 279 279
289 289 288 288 288 287 287 287 287 287 287 287 287 286 286 285 284 284 284 284 283 283 283 282 282 286 288 289 289 289 289 287 281 281 280 280 280 280 280 280 279 279
289 288 288 288 287 287 287 287 287 287 287 287 287 286 286 286 285 285 284 284 283 283 282 282 282 286 288 288 289 289 289 284 281 281 280 280 279 279 279 279 279 279
289 288 287 287 287 286 286 287 287 286 287 287 286 286 286 285 285 285 285 284 283 283 282 282 281 285 287 288 289 289 288 282 281 281 280 279 279 279 279 279 279 279
289 288 287 287 286 286 286 287 287 287 286 286 286 286 286 285 285 285 285 284 284 283 282 282 282 283 287 288 288 289 287 282 281 280 280 279 279 279 279 279 279 280
288 288 288 287 287 286 286 286 286 286 286 286 286 286 286 286 285 285 284 284 284 283 283 282 282 282 286 287 288 289 286 282 281 280 280 279 279 278 279 278 279 280
288 287 287 287 287 287 286 286 286 285 284 284 284 285 286 285 285 284 284 283 283 283 282 282 282 281 285 287 288 289 288 282 281 280 279 279 279 279 278 278 278 279
Wind_Speed
9 8 9 9 9 8 9 9 8 9 9 8 9 10 10 9 9 10 10 9 10 11 11 10 10 10 10 11 11 10 10 10 9 8 10 10 9 10 10 8 7 8
10 8 7 8 8 7 8 10 10 10 10 10 9 8 8 8 9 10 10 10 9 10 10 10 10 10 11 10 11 11 9 9 10 6 10 10 9 10 10 10 9 6
9 8 8 10 10 9 10 9 9 9 9 9 8 7 7 8 10 9 9 9 10 9 9 10 10 10 10 10 11 11 10 10 10 8 9 10 9 9 8 9 8 9
10 10 8 8 8 9 9 9 8 7 7 7 9 8 8 8 9 10 9 9 9 9 9 9 10 10 10 10 10 9 11 11 10 9 9 7 8 9 9 7 7 7
11 10 9 8 7 7 8 9 10 9 9 9 7 8 8 9 9 10 9 9 8 8 8 9 8 10 10 11 11 10 9 9 9 10 10 9 7 8 8 8 9 9
9 9 9 9 9 9 9 9 10 10 10 9 10 9 9 10 10 11 11 11 9 9 9 9 10 8 9 10 11 11 10 9 9 10 10 11 8 7 8 8 10 10
11 10 11 9 9 10 10 10 9 9 9 9 8 10 10 11 11 11 11 11 11 11 11 11 11 10 9 10 10 10 10 10 10 11 12 9 9 9 7 9 10 11
10 10 10 9 10 10 11 10 9 9 9 8 11 10 11 12 12 11 10 11 11 11 11 12 12 12 11 10 11 11 11 8 10 11 11 11 10 11 10 8 10 11
10 10 10 11 11 10 11 11 10 9 8 10 10 9 9 10 11 11 11 12 11 11 12 12 13 12 11 11 12 13 13 11 11 13 13 13 13 13 13 10 11 11
10 9 10 11 12 11 12 11 10 9 9 10 10 9 11 9 9 11 10 11 12 12 12 12 12 12 12 12 13 14 14 14 13 13 13 14 15 14 13 13 14 12
11 10 11 13 13 11 12 10 10 10 9 11 9 9 10 9 9 9 11 12 12 12 12 12 13 13 13 13 11 12 14 14 14 13 14 14 15 15 14 14 14 14
12 11 13 14 13 11 11 11 10 10 10 9 11 12 10 10 11 10 11 13 12 12 13 13 13 13 13 13 13 12 11 12 13 14 14 14 14 14 15 14 15 13
13 13 12 12 12 12 9 10 11 10 10 11 10 11 12 12 11 12 11 12 12 11 13 13 12 12 13 13 12 12 13 14 13 12 12 12 12 14 13 13 13 12
13 11 11 11 10 10 10 10 10 11 11 10 10 12 12 13 13 13 12 11 12 11 11 11 12 12 12 12 12 13 12 12 13 13 12 11 11 10 11 11 10 11
9 9 8 9 9 10 11 11 10 10 10 10 11 11 10 11 11 12 12 12 12 12 11 11 11 12 11 12 12 11 11 12 12 12 12 12 11 10 9 9 9 9
9 8 9 8 10 12 12 11 10 9 10 11 12 12 10 10 11 11 11 13 13 12 11 10 10 9 12 17 15 13 13 11 10 11 11 11 11 11 10 9 9 9
8 10 8 10 12 10 10 11 11 9 10 11 11 11 11 11 11 11 12 11 12 12 13 10 10 9 16 18 19 19 14 12 13 12 11 11 11 12 12 11 9 8
10 9 10 11 10 12 12 10 9 9 11 12 12 11 11 9 11 13 13 12 10 11 12 13 12 14 19 21 21 21 17 13 11 11 12 12 11 12 11 11 11 10
9 10 11 11 12 11 9 9 10 10 12 13 14 13 10 12 13 12 13 12 12 13 13 12 10 15 20 22 22 22 22 16 10 11 11 12 11 12 12 12 11 10
8 9 10 11 9 8 9 10 11 14 13 11 10 10 12 12 11 13 13 13 13 13 12 11 12 15 21 22 22 22 22 17 10 12 12 12 13 13 12 12 13 12
10 10 10 9 9 9 10 11 12 12 12 11 10 11 12 13 12 12 12 11 12 11 11 12 11 17 21 22 21 22 22 18 11 10 10 11 11 12 12 13 13 12
10 10 10 9 9 9 10 12 12 13 13 10 9 9 9 8 9 10 11 12 12 12 12 12 11 18 20 21 22 22 23 13 10 10 10 11 11 11 10 10 11 12
9 10 10 10 10 11 12 13 13 12 11 9 10 10 10 11 12 12 12 12 13 12 13 12 11 18 23 23 23 23 18 10 9 9 9 11 11 11 11 10 10 11
9 10 11 11 11 14 15 14 12 10 11 10 12 12 13 12 10 9 9 10 12 13 12 11 10 15 22 22 23 24 18 12 10 10 9 9 8 9 9 9 11 15
9 10 11 11 13 14 13 13 13 13 10 9 11 10 11 8 9 9 10 9 10 11 13 13 10 12 20 21 23 24 19 11 11 10 11 10 9 9 8 8 8 11
8 10 11 12 13 12 11 12 9 8 10 10 9 9 9 9 10 11 12 10 10 11 12 11 10 8 13 20 22 24 21 13 11 11 12 11 9 10 9 6 7 8
Wind_Direction
203 201 202 196 197 190 184 189 190 184 184 185 188 187 188 188 184 188 188 182 182 177 176 177 177 176 178 179 180 179 183 181 175 171 173 172 177 171 176 173 173 171
204 198 200 197 196 191 192 191 189 190 188 189 194 186 186 179 188 187 186 184 177 178 173 174 178 176 176 178 180 178 177 173 173 170 165 171 172 170 170 168 162 155
202 197 195 196 195 192 190 192 192 194 188 189 186 183 178 182 181 187 188 185 178 172 171 172 177 178 177 177 176 175 172 169 169 171 162 169 164 167 166 158 154 163
207 204 198 197 191 190 188 187 193 191 187 182 188 180 175 178 179 182 186 185 181 177 174 172 178 179 179 176 174 177 174 174 170 163 160 154 166 157 159 156 151 144
204 205 200 196 193 187 185 190 191 191 190 189 172 167 168 174 181 182 184 187 185 179 176 179 180 180 177 175 175 174 175 172 166 164 159 162 168 158 159 151 154 153
206 204 201 200 194 187 191 196 193 189 190 182 181 171 180 178 182 183 181 182 185 181 182 182 181 182 179 177 175 177 173 169 172 166 162 162 163 165 157 161 157 157
203 202 205 201 201 198 197 199 196 193 192 186 164 183 176 180 185 188 183 183 181 183 184 183 181 182 186 179 178 174 176 173 168 171 164 164 158 163 168 163 166 162
205 202 204 204 206 203 205 201 197 194 187 172 183 186 180 184 186 185 184 181 182 187 188 185 186 184 183 180 178 174 175 173 171 170 168 164 164 167 172 174 167 162
202 203 198 203 206 206 207 202 199 195 184 184 188 183 188 188 187 183 184 182 184 187 189 189 187 186 185 184 182 178 176 179 177 174 171 169 173 174 174 170 167 168
205 200 199 202 206 209 208 201 194 193 185 191 190 179 186 192 187 185 184 186 186 187 191 191 188 187 186 191 186 182 181 179 178 179 177 176 176 175 173 173 173 168
206 199 202 206 209 207 209 201 196 190 187 191 182 186 189 182 189 187 187 187 188 188 190 192 192 187 187 192 191 189 184 180 181 181 180 181 180 178 177 177 174 174
208 203 207 207 209 210 207 201 198 194 190 193 186 185 184 189 186 188 191 191 191 191 191 193 190 190 190 191 189 186 188 187 184 183 183 183 183 181 180 180 177 176
210 211 207 207 207 208 203 202 201 195 190 194 190 187 186 190 192 190 196 194 194 189 192 192 192 192 192 191 191 188 186 184 186 190 187 185 187 185 184 182 178 171
215 211 210 209 204 203 206 207 204 198 195 192 187 194 195 193 191 193 193 193 193 194 194 190 190 193 194 193 191 189 187 188 185 186 185 188 188 187 184 181 176 171
215 215 213 207 201 202 207 208 207 205 195 190 194 200 199 199 196 193 191 196 195 192 190 192 193 195 193 189 188 190 190 188 187 188 186 184 183 182 182 178 175 174
215 212 210 204 204 208 208 205 205 205 201 196 198 202 200 196 197 198 197 198 195 190 189 192 197 196 196 192 188 184 185 187 187 190 187 183 178 177 180 181 177 175
211 213 203 208 211 209 208 204 203 200 204 205 201 200 202 200 196 196 200 202 202 193 188 193 197 197 192 193 192 191 187 185 184 185 184 184 183 178 177 176 176 177
211 206 205 213 208 211 207 204 199 200 206 206 202 200 204 198 201 201 200 198 199 199 193 195 197 192 189 193 193 193 190 187 184 182 183 185 182 180 177 173 174 174
210 207 210 211 213 210 203 199 201 204 208 207 206 200 193 200 205 201 202 199 199 200 199 196 201 191 192 193 194 193 190 184 185 181 180 183 180 179 176 176 173 172
215 213 215 217 212 206 202 203 203 210 211 211 207 196 199 203 203 207 206 202 198 200 201 198 197 191 193 194 195 193 190 184 182 181 183 182 181 179 178 177 175 173
214 213 217 213 207 203 204 208 210 214 210 209 206 203 199 202 203 204 208 209 204 198 198 200 201 191 193 193 193 192 189 183 182 180 181 183 184 182 179 179 179 178
213 214 215 211 206 204 207 212 214 212 211 206 207 212 212 204 208 206 207 206 205 201 197 198 196 192 193 193 192 192 187 185 181 179 180 181 182 182 181 182 179 176
213 212 213 208 205 205 210 214 212 212 212 200 206 207 206 207 207 204 203 204 206 206 204 200 192 190 191 192 192 189 183 184 179 182 183 181 183 181 181 178 180 178
213 209 212 208 204 209 211 214 212 211 210 198 204 203 208 209 206 208 207 209 208 206 201 202 201 194 191 191 189 188 182 179 179 180 183 182 180 181 179 181 182 178
214 213 214 210 211 214 211 211 208 209 204 196 207 206 210 198 201 206 210 209 213 211 204 202 198 199 194 190 190 188 182 178 177 181 181 185 177 179 181 176 177 180
214 215 217 214 216 215 210 212 205 200 198 200 205 204 206 198 199 204 205 209 202 204 205 201 188 193 197 193 193 191 180 173 178 180 187 181 179 175 171 179 173 170